Tracking 22130 objects as of 21-Jan-2021
HD Live streaming from Space Station
objects crossing your sky now

LEMUR 2 DJARA

Track LEMUR 2 DJARA now!
10-day predictions
LEMUR 2 DJARA is classified as:


NORAD ID: 46926
Int'l Code: 1998-067RW
Perigee: 415.0 km
Apogee: 415.4 km
Inclination: 51.6 °
Period: 92.7 minutes
Semi major axis: 6786 km
RCS: Unknown
Launch date: November 20, 1998
Source: United States (US)
Launch site: TYURATAM MISSILE AND SPACE COMPLEX (TTMTR)
aabbcc
Your satellite tracking list
Your tracking list is empty




NASA's NSSDC Master Catalog

Two Line Element Set (TLE):
1 46926U 98067RW  21020.61357428  .00017085  00000-0  27600-3 0  9997
2 46926  51.6440 351.3145 0000257   7.3540 352.7454 15.52972571 11875
Source of the keplerian elements: AFSPC